Regional Weather Roundup
Issued by NWS Columbia, SC

Home | Current Version | Previous Version | Text Only | Print | Product List | Glossary On
Versions: 1 2 3 4 5 6 7 8 9 10 11 12 13 14 15 16 17 18 19 20 21 22 23 24 25 26 27 28 29 30 31 32 33 34 35 36 37 38 39 40 41 42 43 44 45 46 47 48 49 50
000
ASUS42 KCAE 221810
RWRCAE
REGIONAL WEATHER ROUNDUP
NATIONAL WEATHER SERVICE COLUMBIA SC
200 PM EDT FRI AUG 22 2014

NOTE: "FAIR" INDICATES FEW OR NO CLOUDS BELOW 12,000 FEET WITH NO
SIGNIFICANT WEATHER AND/OR OBSTRUCTIONS TO VISIBILITY.

NOT ALL STATIONS ARE QUALITY CONTROLLED BY THE NATIONAL
WEATHER SERVICE. USE DATA WITH CAUTION...ESPECIALLY
DEWPOINT OBSERVATIONS.

SCZ001>056-GAZ040-063>065-077-221900-
...UPSTATE SOUTH CAROLINA...

CITY           SKY/WX    TMP DP  RH WIND       PRES   REMARKS
ANDERSON       MOSUNNY   93  68  43 W9        30.06F HX  97
6HR MIN TEMP:  74; 6HR MAX TEMP:  93;

LIBERTY        FAIR      92  89  92 W8        30.07S HX 133
6HR MIN TEMP:  64; 6HR MAX TEMP:  92;

SPARTANBURG    FAIR      95  68  41 NW5       30.05S HX  99
CLEMSON        SUNNY     93  68  43 VRB5      30.08S HX  97
6HR MIN TEMP:  75; 6HR MAX TEMP:  94;

GREENVILLE     SUNNY     92  66  42 S7        30.08F
6HR MIN TEMP:  73; 6HR MAX TEMP:  93;

GREENWOOD      MOSUNNY   95  63  34 MISG      30.06F HX  96
6HR MIN TEMP:  76; 6HR MAX TEMP:  96;

GREER          SUNNY     92  69  47 CALM      30.06F HX  97
6HR MIN TEMP:  74; 6HR MAX TEMP:  92;

ROCK HILL      PTSUNNY   91  72  53 N6        30.05F HX  98
6HR MIN TEMP:  75; 6HR MAX TEMP:  92;

CHESTER        FAIR      95  63  34 N3        30.05S HX  96
LAURENS        FAIR      91  57  31 N5        30.06S


...CENTRAL SOUTH CAROLINA...

CITY           SKY/WX    TMP DP  RH WIND       PRES   REMARKS
COLUMBIA APT   PTSUNNY   96  65  35 W9        30.01F HX  98
6HR MIN TEMP:  76; 6HR MAX TEMP:  97;

COLUMBIA OWENS MOSUNNY   97  63  32 NW8       30.02F HX  98
6HR MIN TEMP:  78; 6HR MAX TEMP:  97;

DARLINGTON     PTSUNNY   97  70  41 CALM      30.01S HX 103
6HR MIN TEMP:  75; 6HR MAX TEMP:  97;

FLORENCE       MOSUNNY   94  70  45 W3        30.00F HX 100
6HR MIN TEMP:  77; 6HR MAX TEMP:  95;

MCENTIRE ANGB  PTSUNNY   94  69  44 W7        30.02F HX  99
6HR MIN TEMP:  74; 6HR MAX TEMP:  94;

ORANGEBURG     SUNNY     96  67  38 W5        30.01F HX 100
6HR MIN TEMP:  76; 6HR MAX TEMP:  97;

SUMTER SHAW    MOSUNNY   96  70  42 NW8       29.99F HX 102
6HR MIN TEMP:  81; 6HR MAX TEMP:  96;

NEWBERRY       FAIR      95  59  30 W8        30.06F
AIKEN          FAIR      95  72  46 W12       30.06F HX 103
BARNWELL       FAIR      99  68  36 W10       30.02F HX 104
MANNING        FAIR      99  70  39 NW5       30.00F HX 105
CAMDEN         FAIR      95  66  38 W7        30.02F HX  98
LANCASTER      FAIR      93  66  40 N6        30.03F HX  96
WINNSBORO      FAIR      93  66  40 CALM      30.03F HX  96


...EASTERN AND COASTAL SOUTH CAROLINA...

CITY           SKY/WX    TMP DP  RH WIND       PRES   REMARKS
MYRTLE BEACH   MOSUNNY   93  77  59 S12       30.00F HX 107
N MYRTLE BCH   MOSUNNY   90  77  65 S6        30.00F HX 103
6HR MIN TEMP:  77; 6HR MAX TEMP:  92;

CONWAY         FAIR      93  72  49 W6        30.00F HX 100
MARION         FAIR      93  70  46 CALM      30.00F HX  99
HARTSVILLE     FAIR      97  25   7 SW5       30.02S
FLORENCE       MOSUNNY   94  70  45 W3        30.00F HX 100
6HR MIN TEMP:  77; 6HR MAX TEMP:  95;

DARLINGTON     PTSUNNY   97  70  41 CALM      30.01S HX 103
6HR MIN TEMP:  75; 6HR MAX TEMP:  97;

CHARLESTON APT MOSUNNY   98  70  40 VRB6      30.01F HX 105
6HR MIN TEMP:  81; 6HR MAX TEMP:  98;

MOUNT PLEASANT FAIR      97  72  44 CALM      30.00F HX 105
WALTERBORO     CLEAR     97  61  30 N3        30.02F HX  97
BEAUFORT       PTSUNNY   98  71  41 N9        30.01F HX 106
6HR MIN TEMP:  80; 6HR MAX TEMP:  98;



...EASTERN GEORGIA...

CITY           SKY/WX    TMP DP  RH WIND       PRES   REMARKS
AUGUSTA BUSH F SUNNY     97  69  40 NW13      30.02F HX 103
6HR MIN TEMP:  74; 6HR MAX TEMP:  97;

AUGUSTA DANIEL MOSUNNY   96  69  41 VRB6      30.04F HX 102
6HR MIN TEMP:  79; 6HR MAX TEMP:  97;

THOMSON        SUNNY     96  76  51 W10       30.08F HX 109
6HR MIN TEMP:  73; 6HR MAX TEMP:  97;

WASHINGTON     FAIR      97  72  44 NW9G18    30.05F HX 105
CLAXTON        FAIR      97  72  44 W8        30.04F HX 105
SYLVANIA       CLEAR     97  75  49 NW8       30.04F HX 110
6HR MIN TEMP:  75; 6HR MAX TEMP:  97;

STATESBORO     MOSUNNY   94  73  49 W8        30.04F HX 103
6HR MIN TEMP:  75; 6HR MAX TEMP:  95;

SAVANNAH       MOSUNNY   98  70  40 NW10      30.03F HX 105
6HR MIN TEMP:  77; 6HR MAX TEMP:  98;



...SOUTHERN NORTH CAROLINA...

CITY           SKY/WX    TMP DP  RH WIND       PRES   REMARKS
CHARLOTTE      PTSUNNY   92  67  43 NW8       30.04F HX  95
6HR MIN TEMP:  76; 6HR MAX TEMP:  93;

MONROE         MOSUNNY   94  66  39 CALM      30.03F HX  97
6HR MIN TEMP:  75; 6HR MAX TEMP:  95;

WADESBORO      CLEAR     95  62  32 E5        30.01F HX  96
6HR MIN TEMP:  75; 6HR MAX TEMP:  95;

ROCKINGHAM     PTCLDY    93  68  43 NW6       30.00F HX  97
6HR MIN TEMP:  76; 6HR MAX TEMP:  93;

RUTHERFORDTON  MOSUNNY   90  70  51 N6        30.07F HX  95
6HR MIN TEMP:  70; 6HR MAX TEMP:  90;

ASHEVILLE      MOSUNNY   87  65  47 N9        30.14F
6HR MIN TEMP:  69; 6HR MAX TEMP:  88;


$$


USA.gov is the U.S. government's official web portal to all federal, state and local government web resources and services.